Flag for Brazil Weather past 2 weeks in Sorocaba, São Paulo, Brazil

Now
64 °F

Clear.


Feels Like: 64 °F
Forecast: 64 / 89 °F
Wind: 7 mph from Southeast

Location: Campinas Aeroporto

Current Time: Sep 15, 2014 at 7:13:07 AM

Latest Report: Sep 15, 2014 at 6:00 AM


Visibility: 6 mi

Pressure: 30.01 "Hg

Humidity: 64%

Dew point: 52 °F

Location of SorocabaLocation

Historic Weather in Sorocaba — Graph

°F

Sorocaba temperature yesterday

Maximum temperature yesterday: 90 °F (at 3:00 PM)
Minimum temperature yesterday: 61 °F (at 5:00 AM)
Average temperature yesterday: 76 °F

Past Weeks' High & Low Weather Summary

 TemperatureHumidityPressure
High91 °F (Aug 31, 2:00 PM)100% (Sep 1, 2:00 AM)30.27 "Hg (Sep 1, 2:00 AM)
Low52 °F (Sep 6, 7:00 AM)12% (Sep 12, 3:00 PM)29.89 "Hg (Sep 2, 5:00 PM)
Average71 °F55%30.10 "Hg
* Reported Aug 31 6:00 AM — Sep 15 6:00 AM, Sorocaba, Weather by CustomWeather, © 2014

Note: Actual official high and low records may vary slightly from our data, if they occured in-between our weather recording intervals... More about our weather records

Advertising

Sorocaba weather history for previous 24 hours

 ConditionsComfort  
Time TempWeatherWind HumidityBarometerVisibility
6:00 AM
Sep 15
64 °FClear.7 mph64%30.01 "Hg6 mi
5:00 AM66 °FClear.6 mph60%30.01 "Hg10 mi
4:00 AM66 °FClear.6 mph60%29.98 "Hg10 mi
3:00 AM68 °FClear.7 mph56%30.01 "Hg10 mi
2:00 AM68 °FClear.7 mph56%30.01 "Hg10 mi
1:00 AM72 °FClear.10 mph50%30.04 "Hg10 mi
12:00 AM72 °FClear.12 mph50%30.04 "Hg10 mi
11:00 PM
Sep 14
73 °FClear.8 mph47%30.07 "Hg10 mi
10:00 PM75 °FClear.13 mph47%30.07 "Hg10 mi
9:00 PM75 °FClear.10 mph44%30.07 "Hg10 mi
8:00 PM82 °FClear.7 mph25%30.04 "Hg10 mi
7:00 PM84 °FClear.8 mph23%30.04 "Hg10 mi
6:00 PM88 °FClear.7 mph21%30.04 "Hg10 mi
5:00 PM88 °FSunny.7 mph19%30.04 "Hg10 mi
4:00 PM90 °FSunny.7 mph17%30.01 "Hg10 mi
3:00 PM90 °FSunny.7 mph17%30.04 "Hg10 mi
2:00 PM88 °FSunny.8 mph19%30.04 "Hg10 mi
1:00 PM88 °FSunny.7 mph22%30.07 "Hg10 mi
12:00 PM86 °FSunny.8 mph24%30.09 "Hg10 mi
11:00 AM82 °FSunny.7 mph28%30.12 "Hg10 mi
10:00 AM79 °FSunny.7 mph32%30.12 "Hg10 mi
9:00 AM75 °FSunny.6 mph41%30.12 "Hg10 mi
8:00 AM70 °FSunny.7 mph50%30.12 "Hg10 mi
7:00 AM63 °FClear.9 mph68%30.12 "Hg6 mi
Weather by CustomWeather, © 2014

See weather overviewHow to use our weather pages